Regional Weather Roundup
Issued by NWS

Home | Current Version | Previous Version | Graphics & Text | Print | Product List | Glossary On
Versions: 1 2 3 4 5 6 7 8 9 10 11 12 13 14 15 16 17 18 19 20 21 22 23 24 25 26 27 28 29 30 31 32 33 34 35 36 37 38 39 40 41 42 43 44 45 46 47 48 49 50
000
ASUS43 KTOP 181459
RWRKS

WEATHER ROUNDUP FOR KANSAS
NATIONAL WEATHER SERVICE GOODLAND KS
900 AM CST THU JAN 18 2018

NOTE:  "FAIR" INDICATES FEW OR NO CLOUDS BELOW 12,000 FEET WITH NO
SIGNIFICANT WEATHER AND/OR OBSTRUCTIONS TO VISIBILITY.

KSZ001>006-013>018-027>032-041>047-181600-
NORTHWEST KANSAS

CITY           SKY/WX    TMP DP  RH WIND       PRES   REMARKS
GOODLAND       CLEAR     33  13  43 SW12      30.06F WCI  24
HAYS           CLOUDY    19  12  74 SW8       30.14S
HILL CITY      CLOUDY    22  15  75 SW7       30.10F
RUSSELL        CLOUDY    20  14  77 SW12      30.12S WCI   8
$$

KSZ061>065-074>080-084>089-181600-
SOUTHWEST KANSAS

CITY           SKY/WX    TMP DP  RH WIND       PRES   REMARKS
DODGE CITY     CLOUDY    22  10  60 SW9       30.14F
GARDEN CITY    CLOUDY    20  11  68 W8        30.13S
GREAT BEND     CLOUDY    22  11  62 SW10      30.16S WCI  11
LIBERAL        CLOUDY    19  11  70 SW8       30.17F
$$

KSZ066>073-081>083-090>101-181600-
SOUTHEAST KANSAS

CITY           SKY/WX    TMP DP  RH WIND       PRES   REMARKS
COFFEYVILLE    CLOUDY    22  11  62 S12       30.39R WCI  10
HUTCHINSON     CLOUDY    24   9  52 S8        30.20F
MEDICINE LODGE   N/A     21   5  50 S5        30.23F
NEWTON         SUNNY     24  10  55 S15       30.21F WCI  11
PARSONS        CLOUDY    20  11  68 S9        30.36F
WICHITA INTL   CLOUDY    23   8  52 S13       30.24F WCI  11
WICHITA JABRA  CLOUDY    23   7  50 S17       30.23F WCI   9
WICHITA MCCONL CLOUDY    23   5  46 SW14      30.25F WCI  10
WINFIELD       CLOUDY    25   8  48 S10       30.32S WCI  15
$$

KSZ007>012-019>026-033>040-048>060-102>105-181600-
NORTHEAST KANSAS

CITY           SKY/WX    TMP DP  RH WIND       PRES   REMARKS
CONCORDIA      CLOUDY    21  10  62 SW8       30.13F
EMPORIA        CLOUDY    24  12  60 S18       30.23F WCI  10
LAWRENCE       CLOUDY    22  10  60 SE7       30.26S
MANHATTAN      CLOUDY    24  10  55 SW6       30.21R
OLATHE IND     CLOUDY    22   9  57 S16       30.25F WCI   8
OLATHE EXE     CLOUDY    20   9  62 S12       30.25F WCI   8
SALINA         CLOUDY    23  10  57 S9        30.19S
TOPEKA BILLARD CLOUDY    22  10  60 S7        30.24S
TOPEKA FORBES  CLOUDY    23  11  60 S12       30.21F WCI  12
$$



USA.gov is the U.S. government's official web portal to all federal, state and local government web resources and services.